[[{"header":{"parameterUnit":"m.s-1","parameterCategory":2,"la1":30.2991,"la2":30.254,"lo1":-89.0895,"lo2":-89.0444,"dy":0.0017,"dx":0.0017,"nx":28,"ny":28,"refTime":"2025-01-18T09:00:00:Z","depth":"0","parameterNumber":2,"parameterNumberName":"U-component_of_CURRENTS"},"data":[0,0,0,0,0,0,0,0,0,0,0,0,0,0,0,0,0,0,0,0,0,0,0,0,0,0,0,0,0,0,0,0,0,0,0,0,0,0,0,0,0,0,0,0,0,0,0,0,0,0,0,0,0,0,0,0,0,0,0.1626,0.1626,0,0.163,0.163,0.163,0.1613,0.1612,0.1611,0.1611,0.1602,0.1602,0.1602,0,0,0,0,0,0,0,0,0,0,0,0,0,0.1654,0.1654,0.1626,0.1626,0.1626,0.163,0.163,0.163,0.1613,0.1612,0.1611,0.1611,0.1602,0.1602,0.1602,0,0,0,0,0,0,0,0,0,0,0,0,0,0.1649,0.1653,0.1626,0.1617,0.1616,0.163,0.163,0.163,0.1613,0.1612,0.1611,0.161,0.1602,0.1602,0.1602,0.1624,0,0,0.1604,0.1604,0,0,0,0,0,0,0,0,0.165,0.1648,0.1618,0.1617,0.1617,0.1619,0.1637,0.1627,0.1613,0.1615,0.1611,0.161,0.1606,0.1607,0.1611,0.1623,0.1623,0.1604,0.1604,0.1604,0.1605,0,0,0,0,0,0,0,0.165,0.1648,0.1628,0.1618,0.1617,0.163,0.1628,0.1635,0.1616,0.1615,0.1613,0.1613,0.1606,0.161,0.161,0.1623,0.1604,0.1604,0.1605,0.1605,0.1684,0.1685,0,0,0,0,0,0,0.1646,0.1648,0.1628,0.1628,0.163,0.163,0.1628,0.162,0.1616,0.1615,0.1613,0.1612,0.161,0.161,0.161,0.1666,0.1604,0.1605,0.1605,0.1682,0.1684,0.1686,0,0,0,0,0,0,0.1646,0.1644,0.1628,0.1638,0.1637,0.163,0.1622,0.162,0.1625,0.1615,0.1613,0.1619,0.1609,0.1609,0.1634,0.1664,0.1605,0.1606,0.168,0.1683,0.1685,0.1758,0,0,0,0,0,0,0.1647,0.1644,0.1644,0.1638,0.1636,0.1644,0.1622,0.1621,0.1626,0.1624,0.162,0.1618,0.1609,0.1634,0.1635,0.1663,0.1606,0.1677,0.1681,0.1684,0.1753,0.1762,0.1771,0,0,0,0,0,0.1648,0.1652,0.1644,0.1642,0.1634,0.1644,0.1646,0.1638,0.1627,0.1638,0.1642,0.1618,0.1655,0.1636,0.1636,0.1666,0.1676,0.168,0.1684,0.1749,0.176,0.177,0,0,0,0,0,0,0.1673,0.165,0.1642,0.164,0.1645,0.1641,0.165,0.1644,0.1656,0.1653,0.1642,0.1642,0.1673,0.1664,0.1642,0.17,0.1662,0.1666,0.1711,0.1721,0.173,0.1716,0.1606,0,0,0,0,0,0.1677,0.1668,0.1659,0.1662,0.1662,0.1658,0.1662,0.1656,0.1661,0.1665,0.1664,0.1671,0.1692,0.1701,0.1709,0.1743,0.1754,0.1763,0.1772,0.178,0.177,0.183,0.1843,0.1699,0.1699,0.1699,0,0,0.1688,0.1675,0.1671,0.1666,0.1667,0.1676,0.1659,0.1666,0.1679,0.1663,0.1687,0.1699,0.1708,0.1746,0.176,0.1742,0.1833,0.1785,0.1791,0.1777,0.1836,0.185,0.1862,0.1702,0.1702,0.1701,0,0,0.1707,0.1694,0.1694,0.1697,0.1695,0.1695,0.1698,0.1698,0.1705,0.173,0.173,0.1765,0.178,0.1806,0.1819,0.1883,0.1875,0.1884,0.192,0.1979,0.1992,0.2002,0.2059,0.2074,0.1891,0.1891,0.1892,0,0.1722,0.1715,0.1702,0.1707,0.1712,0.1704,0.1716,0.1727,0.1739,0.1754,0.1742,0.1801,0.1811,0.1874,0.1898,0.1903,0.193,0.1879,0.1991,0.2002,0.2011,0.2067,0.2082,0.1895,0.1895,0.1895,0.1894,0,0.1739,0.1738,0.1743,0.174,0.1749,0.1758,0.1765,0.1781,0.1785,0.1797,0.1849,0.1877,0.1908,0.1931,0.1933,0.2013,0.201,0.1994,0.1963,0.203,0.2085,0.21,0.1901,0.19,0.1899,0.1898,0,0,0.1755,0.1753,0.1754,0.1757,0.1763,0.1771,0.1801,0.1827,0.1848,0.1875,0.1915,0.1973,0.1981,0.1997,0.2018,0.2074,0.2182,0.2064,0.2065,0.2117,0.2318,0.2352,0.2372,0.2188,0.219,0.2192,0.2337,0,0.1773,0.1782,0.178,0.18,0.1806,0.1812,0.184,0.1865,0.1887,0.1925,0.1969,0.2009,0.2009,0.2033,0.2093,0.2145,0.222,0.2144,0.2245,0.2248,0.2269,0.239,0.2426,0.2561,0.2352,0.2354,0.2356,0,0.1785,0.1789,0.1805,0.182,0.1824,0.1839,0.1875,0.19,0.1952,0.1971,0.202,0.204,0.2123,0.2111,0.2249,0.2198,0.2266,0.2313,0.2319,0.2329,0.2311,0.2455,0.2596,0.2511,0.2379,0.2377,0.2375,0,0.179,0.1805,0.1817,0.1821,0.184,0.1856,0.1873,0.1915,0.1941,0.2,0.2026,0.2107,0.215,0.224,0.2322,0.2295,0.2472,0.2446,0.2551,0.2553,0.2591,0.2592,0.2656,0.2568,0.2568,0.2567,0.2567,0,0.1798,0.1807,0.1818,0.1822,0.1844,0.1858,0.1892,0.1919,0.1966,0.2007,0.2047,0.2101,0.2185,0.2279,0.2354,0.2504,0.2505,0.2585,0.2606,0.262,0.2622,0.2551,0.2445,0.2573,0.2571,0.257,0.2569,0,0.1795,0.1802,0.1813,0.1834,0.1842,0.1857,0.1889,0.1919,0.1959,0.2015,0.2035,0.2116,0.2242,0.2337,0.249,0.2554,0.2628,0.2737,0.2745,0.2765,0.2772,0.2668,0.2605,0.2557,0.2887,0.2889,0.2891,0,0.1789,0.1794,0.1814,0.1822,0.183,0.1852,0.1874,0.1912,0.1946,0.2031,0.2065,0.2184,0.228,0.2511,0.2655,0.2825,0.2701,0.2949,0.2909,0.2807,0.2706,0.2518,0.2467,0.3,0.3003,0.3005,0.3006,0,0.1778,0.1786,0.1797,0.1817,0.1835,0.1857,0.189,0.1915,0.1973,0.2029,0.2125,0.2204,0.2424,0.2605,0.2813,0.293,0.2813,0.2995,0.2899,0.2816,0.2605,0.2558,0.2852,0.3024,0.3022,0.3021,0.302,0.3019,0.1767,0.1772,0.179,0.1813,0.1834,0.1865,0.1889,0.1932,0.1993,0.2073,0.2154,0.2294,0.2522,0.2825,0.2923,0.3089,0.2929,0.3084,0.2975,0.2802,0.2716,0.3044,0.3221,0.3221,0.322,0.322,0.3219,0,0.1754,0.1767,0.1785,0.1814,0.1839,0.1856,0.1903,0.1928,0.1998,0.2082,0.217,0.2437,0.2669,0.2871,0.3115,0.3081,0.2974,0.3,0.275,0.2713,0.3063,0.303,0.3162,0.3162,0.3162,0.3162,0.3162,0.3162,0.1746,0.1759,0.1777,0.1813,0.1838,0.187,0.1899,0.1933,0.1989,0.2093,0.2224,0.2314,0.2596,0.2827,0.2963,0.2945,0.2699,0.2613,0.2493,0.2748,0.2746,0.2744,0.2693,0.2752,0.2751,0.2156,0.2151,0.2147]},{"header":{"parameterUnit":"m.s-1","parameterCategory":2,"la1":30.2991,"la2":30.254,"lo1":-89.0895,"lo2":-89.0444,"dy":0.0017,"dx":0.0017,"nx":28,"ny":28,"refTime":"2025-01-18T09:00:00:Z","depth":"0","parameterNumber":3,"parameterNumberName":"V-component_of_CURRENTS"},"data":[0,0,0,0,0,0,0,0,0,0,0,0,0,0,0,0,0,0,0,0,0,0,0,0,0,0,0,0,0,0,0,0,0,0,0,0,0,0,0,0,0,0,0,0,0,0,0,0,0,0,0,0,0,0,0,0,0,0,-0.1266,-0.1267,0,-0.1314,-0.1314,-0.1315,-0.1347,-0.1347,-0.1347,-0.1347,-0.1405,-0.1407,-0.1408,0,0,0,0,0,0,0,0,0,0,0,0,0,-0.1243,-0.1243,-0.1266,-0.1267,-0.1267,-0.1314,-0.1314,-0.1315,-0.1347,-0.1347,-0.1347,-0.1347,-0.1405,-0.1406,-0.1408,0,0,0,0,0,0,0,0,0,0,0,0,0,-0.1269,-0.1243,-0.1266,-0.1288,-0.1291,-0.1313,-0.1314,-0.1315,-0.1347,-0.1347,-0.1347,-0.1347,-0.1404,-0.1406,-0.1408,-0.1417,0,0,-0.1415,-0.1416,0,0,0,0,0,0,0,0,-0.1267,-0.1269,-0.1284,-0.1287,-0.1289,-0.1324,-0.1327,-0.135,-0.1347,-0.1326,-0.1347,-0.1348,-0.1378,-0.1382,-0.1392,-0.142,-0.1422,-0.1415,-0.1416,-0.1417,-0.1418,0,0,0,0,0,0,0,-0.1265,-0.1268,-0.1286,-0.1285,-0.1288,-0.1309,-0.1313,-0.1332,-0.1351,-0.1328,-0.133,-0.1334,-0.138,-0.139,-0.1394,-0.1423,-0.1415,-0.1417,-0.1418,-0.1419,-0.1445,-0.1444,0,0,0,0,0,0,-0.1255,-0.1266,-0.1284,-0.1287,-0.1278,-0.1309,-0.1313,-0.1313,-0.1351,-0.1357,-0.1334,-0.1335,-0.1386,-0.1391,-0.1396,-0.1394,-0.1417,-0.1419,-0.142,-0.1445,-0.1445,-0.1444,0,0,0,0,0,0,-0.1254,-0.1256,-0.1283,-0.1277,-0.1282,-0.1309,-0.1309,-0.1314,-0.1324,-0.1355,-0.1361,-0.1339,-0.1387,-0.1393,-0.1414,-0.1397,-0.142,-0.1422,-0.1446,-0.1445,-0.1444,-0.14,0,0,0,0,0,0,-0.1253,-0.1256,-0.1254,-0.1276,-0.1282,-0.1292,-0.1309,-0.1315,-0.1326,-0.1328,-0.1361,-0.1367,-0.1387,-0.141,-0.1416,-0.14,-0.1424,-0.1447,-0.1446,-0.1445,-0.1402,-0.1397,-0.1393,0,0,0,0,0,-0.1252,-0.1248,-0.1253,-0.1256,-0.1278,-0.1292,-0.1297,-0.1317,-0.1326,-0.1328,-0.1352,-0.1366,-0.1407,-0.1412,-0.1419,-0.1403,-0.1447,-0.1446,-0.1445,-0.1404,-0.1398,-0.1394,0,0,0,0,0,0,-0.1241,-0.1252,-0.1258,-0.1258,-0.1271,-0.1297,-0.1302,-0.1314,-0.1336,-0.1337,-0.1368,-0.1375,-0.1385,-0.1401,-0.1406,-0.1406,-0.1426,-0.1425,-0.1392,-0.1387,-0.1383,-0.1362,-0.1425,0,0,0,0,0,-0.1236,-0.1233,-0.1249,-0.125,-0.1254,-0.1277,-0.1285,-0.1296,-0.1317,-0.1327,-0.1349,-0.1369,-0.1384,-0.1392,-0.141,-0.1415,-0.14,-0.1406,-0.1402,-0.1398,-0.1385,-0.1353,-0.1345,-0.144,-0.144,-0.144,0,0,-0.1232,-0.1237,-0.1236,-0.1247,-0.126,-0.1262,-0.1283,-0.129,-0.1291,-0.1329,-0.1338,-0.1358,-0.1383,-0.1388,-0.1392,-0.14,-0.1361,-0.1397,-0.1393,-0.1382,-0.1351,-0.1342,-0.1333,-0.1439,-0.1439,-0.1439,0,0,-0.1223,-0.1226,-0.1222,-0.1228,-0.1239,-0.125,-0.1249,-0.1269,-0.1276,-0.1288,-0.1311,-0.1318,-0.1349,-0.1355,-0.1365,-0.1347,-0.1342,-0.1353,-0.1314,-0.1283,-0.1275,-0.1267,-0.1222,-0.121,-0.1349,-0.1348,-0.1348,0,-0.1219,-0.1213,-0.1224,-0.1222,-0.1223,-0.1241,-0.1236,-0.1246,-0.1269,-0.1269,-0.1283,-0.1306,-0.1327,-0.1324,-0.1317,-0.1335,-0.1313,-0.1332,-0.1276,-0.1268,-0.1261,-0.1217,-0.1205,-0.1346,-0.1346,-0.1347,-0.1347,0,-0.1208,-0.1202,-0.12,-0.1199,-0.1202,-0.12,-0.1209,-0.1211,-0.122,-0.1228,-0.1227,-0.1252,-0.1262,-0.1267,-0.1289,-0.1252,-0.125,-0.1275,-0.1286,-0.1249,-0.1204,-0.1193,-0.1343,-0.1344,-0.1344,-0.1345,0,0,-0.12,-0.1193,-0.1191,-0.1183,-0.1187,-0.1186,-0.1181,-0.1179,-0.117,-0.1182,-0.1168,-0.1184,-0.1192,-0.1201,-0.1222,-0.1194,-0.1125,-0.1209,-0.1208,-0.1156,-0.1038,-0.1038,-0.1025,-0.1141,-0.1139,-0.1137,-0.1021,0,-0.1189,-0.1173,-0.1174,-0.1156,-0.1147,-0.1153,-0.1144,-0.1143,-0.1147,-0.1138,-0.1144,-0.1144,-0.1169,-0.117,-0.1145,-0.1145,-0.1094,-0.1152,-0.1087,-0.1085,-0.1084,-0.1012,-0.0977,-0.0871,-0.101,-0.1008,-0.1007,0,-0.1177,-0.1167,-0.1146,-0.1125,-0.1121,-0.1113,-0.1096,-0.1091,-0.1084,-0.1085,-0.1079,-0.1091,-0.1067,-0.1089,-0.1033,-0.107,-0.1037,-0.1023,-0.1019,-0.1025,-0.1063,-0.0934,-0.0845,-0.0845,-0.0989,-0.099,-0.0992,0,-0.1163,-0.1145,-0.1124,-0.1119,-0.1102,-0.109,-0.1081,-0.1074,-0.1061,-0.1049,-0.1036,-0.1022,-0.1009,-0.0976,-0.0964,-0.0988,-0.089,-0.0925,-0.0879,-0.0879,-0.0838,-0.0838,-0.0735,-0.0843,-0.0844,-0.0844,-0.0844,0,-0.1148,-0.1131,-0.1114,-0.1102,-0.1072,-0.1069,-0.104,-0.1034,-0.1016,-0.0991,-0.1005,-0.0979,-0.0977,-0.094,-0.0925,-0.0865,-0.0855,-0.0842,-0.0841,-0.0822,-0.0821,-0.0814,-0.0872,-0.084,-0.084,-0.0841,-0.0842,0,-0.1135,-0.1125,-0.1099,-0.1075,-0.1065,-0.1044,-0.1014,-0.0993,-0.0982,-0.0948,-0.094,-0.0926,-0.0885,-0.0874,-0.0816,-0.0809,-0.0771,-0.0735,-0.0708,-0.0706,-0.0683,-0.0741,-0.0695,-0.073,-0.0655,-0.0655,-0.0654,0,-0.1126,-0.1112,-0.108,-0.1059,-0.1046,-0.1016,-0.0995,-0.0979,-0.0957,-0.0914,-0.0892,-0.0849,-0.0815,-0.0739,-0.0724,-0.0672,-0.0718,-0.0599,-0.0641,-0.0646,-0.0709,-0.0777,-0.0816,-0.0556,-0.0554,-0.0553,-0.0552,0,-0.1109,-0.1099,-0.1077,-0.1039,-0.1011,-0.0975,-0.0943,-0.0922,-0.0898,-0.0859,-0.0803,-0.0769,-0.0715,-0.0649,-0.0602,-0.0585,-0.0642,-0.0574,-0.0577,-0.0611,-0.0678,-0.0724,-0.0667,-0.0542,-0.0543,-0.0544,-0.0544,-0.0545,-0.1097,-0.1076,-0.1049,-0.1015,-0.0981,-0.0937,-0.0904,-0.0861,-0.0811,-0.0715,-0.0717,-0.0579,-0.0528,-0.0469,-0.0518,-0.0495,-0.0577,-0.0462,-0.0522,-0.0582,-0.0645,-0.0563,-0.0456,-0.0457,-0.0457,-0.0457,-0.0458,0,-0.1088,-0.106,-0.1024,-0.0981,-0.0946,-0.0927,-0.087,-0.0817,-0.0744,-0.0587,-0.051,-0.0268,-0.0263,-0.0263,-0.0256,-0.0359,-0.0482,-0.0428,-0.0495,-0.0533,-0.0421,-0.0445,-0.0334,-0.0334,-0.0334,-0.0334,-0.0334,-0.0334,-0.1077,-0.1045,-0.1026,-0.0965,-0.093,-0.0867,-0.0831,-0.0725,-0.059,-0.0276,-0.0023,0.0138,0.0354,0.0017,-0.0155,-0.0273,-0.042,-0.0495,-0.0576,-0.0469,-0.0476,-0.0483,-0.0514,-0.0419,-0.042,-0.0655,-0.0657,-0.0659]}],[{"header":{"parameterUnit":"m.s-1","parameterCategory":2,"la1":30.2991,"la2":30.254,"lo1":-89.0895,"lo2":-89.0444,"dy":0.0017,"dx":0.0017,"nx":28,"ny":28,"refTime":"2025-01-18T09:00:00:Z","depth":"2","parameterNumber":2,"parameterNumberName":"U-component_of_CURRENTS"},"data":[0,0,0,0,0,0,0,0,0,0,0,0,0,0,0,0,0,0,0,0,0,0,0,0,0,0,0,0,0,0,0,0,0,0,0,0,0,0,0,0,0,0,0,0,0,0,0,0,0,0,0,0,0,0,0,0,0,0,-0.0015,-0.0016,0,-0.0062,-0.0062,-0.0063,-0.0087,-0.0087,-0.0087,-0.0087,-0.0133,-0.0135,-0.0136,0,0,0,0,0,0,0,0,0,0,0,0,0,0.0017,0.0016,-0.0015,-0.0016,-0.0016,-0.0061,-0.0062,-0.0063,-0.0087,-0.0087,-0.0087,-0.0087,-0.0133,-0.0135,-0.0136,0,0,0,0,0,0,0,0,0,0,0,0,0,-0.0011,0.0016,-0.0015,-0.0033,-0.0035,-0.0061,-0.0062,-0.0063,-0.0088,-0.0087,-0.0087,-0.0087,-0.0132,-0.0134,-0.0136,-0.0151,0,0,-0.0142,-0.0143,0,0,0,0,0,0,0,0,-0.001,-0.0013,-0.003,-0.0032,-0.0034,-0.0067,-0.0068,-0.0092,-0.0088,-0.0069,-0.0087,-0.0087,-0.011,-0.0114,-0.0125,-0.0153,-0.0155,-0.0143,-0.0144,-0.0145,-0.0145,0,0,0,0,0,0,0,-0.0008,-0.0011,-0.0035,-0.003,-0.0033,-0.005,-0.0054,-0.0073,-0.0091,-0.0071,-0.0072,-0.0075,-0.0112,-0.0123,-0.0127,-0.0156,-0.0142,-0.0144,-0.0145,-0.0146,-0.0151,-0.015,0,0,0,0,0,0,0.0003,-0.0009,-0.0034,-0.0036,-0.002,-0.0051,-0.0055,-0.0058,-0.0091,-0.0095,-0.0075,-0.0076,-0.012,-0.0124,-0.0128,-0.0089,-0.0145,-0.0146,-0.0148,-0.0152,-0.0151,-0.015,0,0,0,0,0,0,0.0003,0.0001,-0.0032,-0.0023,-0.0028,-0.0051,-0.0054,-0.0059,-0.006,-0.0094,-0.0099,-0.007,-0.012,-0.0125,-0.0132,-0.0094,-0.0147,-0.0149,-0.0154,-0.0152,-0.0151,-0.0049,0,0,0,0,0,0,0.0004,0.0001,0.0006,-0.0022,-0.0028,-0.0031,-0.0055,-0.006,-0.0062,-0.0064,-0.0092,-0.0097,-0.012,-0.0129,-0.0134,-0.0097,-0.0151,-0.0155,-0.0153,-0.0151,-0.0054,-0.0044,-0.0036,0,0,0,0,0,0.0006,0.0015,0.0007,0.0004,-0.0021,-0.003,-0.0034,-0.0052,-0.0062,-0.0054,-0.0076,-0.0095,-0.012,-0.013,-0.0136,-0.0099,-0.0156,-0.0153,-0.0151,-0.0058,-0.0046,-0.0036,0,0,0,0,0,0,0.0027,0.0012,0.0003,0.0006,-0.0003,-0.0033,-0.0027,-0.0043,-0.0056,-0.0053,-0.009,-0.0096,-0.0086,-0.0111,-0.0122,-0.0096,-0.0138,-0.0137,-0.0065,-0.0054,-0.0046,-0.0013,-0.0152,0,0,0,0,0,0.0035,0.0042,0.0021,0.0025,0.0026,0.0001,-0.0004,-0.0014,-0.0031,-0.0037,-0.0058,-0.0075,-0.0083,-0.0084,-0.0101,-0.009,-0.0082,-0.0069,-0.006,-0.0052,-0.003,0.0008,0.0024,-0.0142,-0.0142,-0.0142,0,0,0.0041,0.0037,0.0038,0.0031,0.0023,0.0034,-0.0001,0.0003,0.0017,-0.0039,-0.0025,-0.0049,-0.0076,-0.0061,-0.0058,-0.0075,0.0001,-0.0049,-0.0042,-0.0024,0.0013,0.0029,0.0044,-0.0141,-0.0141,-0.0141,0,0,0.0062,0.0059,0.0072,0.0076,0.0075,0.0065,0.0072,0.0054,0.0055,0.0059,0.0028,0.0031,0.0008,0.0008,0.0002,0.0048,0.0042,0.004,0.012,0.0157,0.0172,0.0185,0.0232,0.0249,0.0051,0.0051,0.0052,0,0.0069,0.0083,0.0075,0.0094,0.0104,0.0086,0.0106,0.0108,0.009,0.0103,0.008,0.0074,0.0048,0.0082,0.01,0.0072,0.0094,0.0084,0.0172,0.0185,0.0196,0.0242,0.0258,0.0057,0.0056,0.0055,0.0055,0,0.0099,0.0116,0.0129,0.015,0.0162,0.0178,0.0183,0.02,0.0197,0.0195,0.0223,0.0192,0.0196,0.0188,0.0159,0.023,0.022,0.0176,0.0152,0.022,0.0262,0.0278,0.0064,0.0062,0.0061,0.0059,0,0,0.01,0.0139,0.0146,0.0168,0.0195,0.0206,0.0251,0.028,0.0314,0.0314,0.0358,0.0353,0.0344,0.0337,0.0307,0.0341,0.0438,0.0305,0.0305,0.0366,0.0543,0.057,0.0589,0.0414,0.0417,0.042,0.0546,0,0.0124,0.0168,0.0185,0.0236,0.0262,0.028,0.0322,0.0355,0.0373,0.0413,0.0418,0.044,0.04,0.0407,0.0441,0.0427,0.0482,0.0409,0.0456,0.0458,0.0485,0.0609,0.0451,0.0554,0.0561,0.0564,0.0565,0,0.0156,0.0181,0.0232,0.0286,0.03,0.0334,0.0405,0.0439,0.0501,0.0517,0.056,0.0554,0.0612,0.0554,0.0625,0.0583,0.0589,0.0581,0.0584,0.0588,0.0516,0.0482,0.0582,0.0591,0.0589,0.0587,0.0586,0,0.0173,0.0221,0.0263,0.0282,0.0338,0.0377,0.0413,0.0477,0.0518,0.0594,0.063,0.0684,0.0717,0.0741,0.0741,0.0693,0.0816,0.0736,0.0777,0.0778,0.0644,0.0629,0.0813,0.0813,0.0812,0.0812,0.0812,0,0.0204,0.0241,0.0276,0.0304,0.0361,0.0401,0.0475,0.0518,0.0592,0.0656,0.0688,0.0751,0.0767,0.0826,0.081,0.0872,0.0882,0.084,0.0831,0.0676,0.0663,0.0677,0.066,0.0817,0.0816,0.0815,0.0814,0,0.0231,0.0253,0.0301,0.0354,0.0376,0.0422,0.0504,0.0555,0.0626,0.0715,0.0747,0.0833,0.0933,0.0955,0.1005,0.0972,0.1005,0.1018,0.0851,0.0822,0.0923,0.0909,0.1089,0.1092,0.1094,0.1096,0.1097,0,0.025,0.0277,0.0329,0.0352,0.0381,0.0448,0.0495,0.0571,0.0628,0.0764,0.081,0.0942,0.1023,0.1134,0.1106,0.1136,0.1125,0.101,0.0892,0.0988,0.0961,0.0943,0.0927,0.0749,0.0748,0.0746,0.0745,0,0.0275,0.0292,0.0319,0.0366,0.0413,0.0464,0.054,0.0581,0.0683,0.0758,0.0879,0.0959,0.1087,0.1072,0.1128,0.1096,0.0992,0.099,0.1146,0.0713,0.0681,0.0649,0.0641,0.0734,0.0736,0.0736,0.0737,0.0737,0.0283,0.0297,0.0325,0.037,0.0415,0.0462,0.0488,0.0567,0.0644,0.074,0.0843,0.0897,0.0937,0.095,0.0985,0.0983,0.1011,0.0901,0.0899,0.0899,0.0847,0.0821,0.0892,0.0894,0.0896,0.0897,0.0898,0,0.0283,0.0294,0.0328,0.0365,0.039,0.0434,0.0499,0.0509,0.0568,0.0664,0.0737,0.0658,0.0695,0.0783,0.0756,0.0788,0.0715,0.0772,0.0633,0.0642,0.065,0.0581,0.0558,0.0558,0.0559,0.0559,0,0,0.0281,0.0297,0.0309,0.0328,0.0352,0.037,0.0388,0.0418,0.0453,0.0479,0.0489,0.0541,0.0634,0.0531,0.0566,0.0573,0.0594,0.0547,0.0794,0.0629,0.0638,0.0682,0.0582,0,0,0,0,0]},{"header":{"parameterUnit":"m.s-1","parameterCategory":2,"la1":30.2991,"la2":30.254,"lo1":-89.0895,"lo2":-89.0444,"dy":0.0017,"dx":0.0017,"nx":28,"ny":28,"refTime":"2025-01-18T09:00:00:Z","depth":"2","parameterNumber":3,"parameterNumberName":"V-component_of_CURRENTS"},"data":[0,0,0,0,0,0,0,0,0,0,0,0,0,0,0,0,0,0,0,0,0,0,0,0,0,0,0,0,0,0,0,0,0,0,0,0,0,0,0,0,0,0,0,0,0,0,0,0,0,0,0,0,0,0,0,0,0,0,0.0496,0.0495,0,0.0423,0.0423,0.0422,0.0377,0.0377,0.0376,0.0376,0.0297,0.0296,0.0294,0,0,0,0,0,0,0,0,0,0,0,0,0,0.0617,0.0615,0.0496,0.0495,0.0494,0.0423,0.0423,0.0422,0.0377,0.0377,0.0376,0.0376,0.0298,0.0296,0.0294,0,0,0,0,0,0,0,0,0,0,0,0,0,0.0558,0.0614,0.0496,0.0462,0.0458,0.0424,0.0423,0.0422,0.0377,0.0377,0.0376,0.0376,0.0299,0.0296,0.0294,0.0289,0,0,0.0286,0.0284,0,0,0,0,0,0,0,0,0.0561,0.0554,0.0468,0.0464,0.046,0.0407,0.0436,0.0376,0.0377,0.041,0.0376,0.0375,0.0333,0.0328,0.0317,0.0285,0.0281,0.0285,0.0284,0.0283,0.0282,0,0,0,0,0,0,0,0.0565,0.0557,0.0468,0.0467,0.0462,0.0458,0.0449,0.0425,0.0376,0.0407,0.0403,0.0393,0.0331,0.032,0.0315,0.028,0.0285,0.0283,0.0281,0.028,0.0174,0.0172,0,0,0,0,0,0,0.0571,0.056,0.0471,0.0466,0.0509,0.0456,0.0446,0.0426,0.0377,0.0368,0.0393,0.0391,0.0325,0.0318,0.0312,0.0254,0.0283,0.028,0.0279,0.0175,0.0173,0.0172,0,0,0,0,0,0,0.0573,0.0563,0.0474,0.0511,0.0499,0.0454,0.0432,0.0425,0.0398,0.0366,0.0358,0.0372,0.0324,0.0316,0.0273,0.0252,0.0279,0.0277,0.0176,0.0174,0.0173,0.0169,0,0,0,0,0,0,0.0577,0.0564,0.0552,0.0511,0.0497,0.0445,0.0432,0.0424,0.0393,0.0388,0.0345,0.0338,0.0323,0.0277,0.027,0.0249,0.0275,0.0178,0.0176,0.0173,0.0171,0.0167,0.0164,0,0,0,0,0,0.0581,0.0566,0.0552,0.0541,0.0482,0.0445,0.0437,0.0405,0.0392,0.0379,0.0345,0.0339,0.0257,0.0274,0.0266,0.0244,0.0179,0.0176,0.0173,0.0172,0.0168,0.0164,0,0,0,0,0,0,0.0617,0.0559,0.0542,0.0511,0.0477,0.0436,0.0422,0.0398,0.0362,0.0354,0.0326,0.0316,0.027,0.0256,0.0275,0.0204,0.0216,0.0211,0.0217,0.0213,0.021,0.0233,0.0272,0,0,0,0,0,0.0618,0.0591,0.054,0.0519,0.0499,0.0459,0.0439,0.0414,0.0377,0.036,0.0327,0.029,0.0255,0.0233,0.0204,0.0168,0.016,0.0146,0.0143,0.0141,0.0153,0.0114,0.0109,0.0163,0.0163,0.0163,0,0,0.0629,0.0594,0.0579,0.0525,0.0497,0.0471,0.0446,0.0411,0.039,0.0358,0.0316,0.0279,0.0243,0.02,0.0178,0.0184,0.012,0.0137,0.0135,0.0149,0.0111,0.0106,0.0101,0.0161,0.0161,0.0161,0,0,0.0642,0.0601,0.0584,0.0553,0.0505,0.0476,0.0463,0.0409,0.0383,0.0339,0.0307,0.0257,0.0207,0.0174,0.0153,0.0114,0.0105,0.0096,0.0098,0.0059,0.0055,0.0051,0.0034,0.0029,0.0093,0.0093,0.0093,0,0.0658,0.0625,0.0576,0.0554,0.0534,0.0477,0.0462,0.0426,0.0365,0.0347,0.0325,0.0237,0.0198,0.0151,0.0128,0.0108,0.0092,0.0118,0.0057,0.0053,0.0049,0.0032,0.0027,0.0093,0.0093,0.0093,0.0093,0,0.0656,0.0631,0.0619,0.057,0.0544,0.0519,0.0464,0.0431,0.039,0.0354,0.0293,0.0231,0.0185,0.015,0.0124,0.0072,0.0071,0.0059,0.0073,0.0044,0.0028,0.0022,0.0092,0.0092,0.0092,0.0092,0,0,0.0684,0.063,0.0624,0.0616,0.055,0.0532,0.0494,0.0448,0.0433,0.0355,0.0331,0.0238,0.0201,0.0174,0.0125,0.0077,0.0022,0.0054,0.0052,0.0049,-0.0051,-0.0031,-0.0035,-0.0004,-0.0005,-0.0006,-0.0051,0,0.0697,0.0676,0.0639,0.0625,0.0608,0.0557,0.0536,0.0489,0.0438,0.0398,0.0317,0.0273,0.0211,0.0185,0.0122,0.0051,0.0007,0.0037,-0.0032,-0.0033,-0.0002,-0.0041,-0.0014,-0.005,-0.0057,-0.0058,-0.0058,0,0.0699,0.0687,0.0681,0.066,0.0649,0.0638,0.0603,0.0576,0.0506,0.0468,0.0399,0.0337,0.025,0.0206,0.0073,0.0094,0.0024,-0.0034,-0.0037,-0.0016,-0.0024,-0.0025,-0.0061,-0.0068,-0.0067,-0.0067,-0.0066,0,0.0741,0.0713,0.0718,0.0706,0.0671,0.0672,0.0656,0.0601,0.0584,0.0516,0.0494,0.0384,0.0334,0.0222,0.009,0.0079,-0.0043,-0.0068,-0.0111,-0.0109,-0.0096,-0.0091,-0.0151,-0.0151,-0.0151,-0.0151,-0.0151,0,0.076,0.0764,0.0744,0.0747,0.0766,0.0725,0.0734,0.0702,0.0656,0.064,0.0538,0.0503,0.0332,0.0236,0.0115,-0.0011,-0.0023,-0.0109,-0.0124,-0.0097,-0.0092,-0.0113,-0.0108,-0.0153,-0.0152,-0.0152,-0.0152,0,0.0801,0.0782,0.0795,0.0784,0.0786,0.0803,0.0794,0.0798,0.0748,0.0724,0.0706,0.0587,0.0467,0.0308,0.0136,0.0037,-0.0088,-0.0126,-0.0071,-0.0079,-0.0134,-0.0128,-0.018,-0.0179,-0.0179,-0.0179,-0.0179,0,0.082,0.083,0.0839,0.0857,0.0858,0.0874,0.089,0.0852,0.085,0.0777,0.0773,0.0657,0.0595,0.0366,0.0174,-0.0006,-0.0067,-0.0109,-0.013,-0.0129,-0.0139,-0.0134,-0.0129,-0.0118,-0.0118,-0.0117,-0.0117,0,0.0867,0.0872,0.0883,0.0919,0.0945,0.0978,0.0992,0.1003,0.0955,0.0938,0.0905,0.086,0.0649,0.0456,0.0209,0.0093,-0.0079,-0.0103,-0.013,-0.0106,-0.0073,-0.0082,-0.0079,-0.0112,-0.0113,-0.0113,-0.0113,-0.0113,0.0905,0.0926,0.0942,0.0978,0.1017,0.1071,0.1105,0.1112,0.1128,0.1088,0.1022,0.0918,0.066,0.0342,0.0165,-0.0012,-0.0009,-0.0114,-0.0116,-0.0118,-0.0094,-0.0061,-0.0093,-0.0093,-0.0093,-0.0093,-0.0094,0,0.0939,0.0958,0.1,0.105,0.1118,0.1115,0.1163,0.1187,0.122,0.116,0.1124,0.081,0.0604,0.0342,0.0105,-0.0043,-0.0047,-0.0112,-0.011,-0.0112,-0.0115,-0.0092,-0.009,-0.0091,-0.0091,-0.0092,0,0,0.0955,0.0992,0.1013,0.1124,0.1171,0.1243,0.1274,0.1295,0.126,0.1189,0.1067,0.091,0.0593,0.0359,0.0164,0.0052,0.0017,0.0041,0.006,0.0088,0.0087,-0.0091,-0.0053,0,0,0,0,0]}],[{"header":{"parameterUnit":"m.s-1","parameterCategory":2,"la1":30.2991,"la2":30.254,"lo1":-89.0895,"lo2":-89.0444,"dy":0.0017,"dx":0.0017,"nx":28,"ny":28,"refTime":"2025-01-18T09:00:00:Z","depth":"4","parameterNumber":2,"parameterNumberName":"U-component_of_CURRENTS"},"data":[0,0,0,0,0,0,0,0,0,0,0,0,0,0,0,0,0,0,0,0,0,0,0,0,0,0,0,0,0,0,0,0,0,0,0,0,0,0,0,0,0,0,0,0,0,0,0,0,0,0,0,0,0,0,0,0,0,0,0.0089,0.0089,0,0.0096,0.0096,0.0096,0.0109,0.0109,0.011,0.011,0.0073,0.0071,0.007,0,0,0,0,0,0,0,0,0,0,0,0,0,0.0065,0.0066,0.0089,0.0089,0.0089,0.0096,0.0096,0.0096,0.0109,0.0109,0.011,0.0111,0.0073,0.0071,0.007,0,0,0,0,0,0,0,0,0,0,0,0,0,0.0072,0.0066,0.0089,0.0098,0.01,0.0096,0.0096,0.0096,0.0109,0.0109,0.011,0.0111,0.0074,0.0071,0.0069,0.0042,0,0,0.0063,0.0062,0,0,0,0,0,0,0,0,0.0072,0.0073,0.0097,0.0098,0.0099,0.0104,0.0074,0.0076,0.0109,0.0103,0.011,0.0111,0.008,0.0077,0.0074,0.004,0.0038,0.0063,0.0061,0.006,0.006,0,0,0,0,0,0,0,0.0071,0.0072,0.0089,0.0097,0.0098,0.0095,0.0097,0.0074,0.0085,0.0103,0.0105,0.0109,0.008,0.0076,0.0074,0.0038,0.0063,0.0061,0.0059,0.0058,-0.0035,-0.0036,0,0,0,0,0,0,0.0076,0.0072,0.0089,0.009,0.009,0.0096,0.0097,0.01,0.0086,0.0086,0.0109,0.011,0.008,0.0076,0.0072,0.0015,0.006,0.0058,0.0057,-0.0034,-0.0035,-0.0037,0,0,0,0,0,0,0.0075,0.0077,0.0089,0.0083,0.0085,0.0096,0.0098,0.01,0.0101,0.0091,0.0089,0.0109,0.008,0.0075,0.0053,0.0014,0.0057,0.0055,-0.0032,-0.0034,-0.0036,-0.0085,0,0,0,0,0,0,0.0074,0.0076,0.0074,0.0083,0.0085,0.0085,0.0098,0.0099,0.0103,0.0105,0.009,0.0088,0.008,0.0056,0.0051,0.0012,0.0054,-0.0031,-0.0033,-0.0035,-0.0082,-0.0089,-0.0094,0,0,0,0,0,0.0073,0.007,0.0074,0.0076,0.0083,0.0085,0.0085,0.0094,0.0103,0.0098,0.009,0.0088,0.0038,0.0054,0.0047,0.0007,-0.003,-0.0033,-0.0035,-0.008,-0.0087,-0.0094,0,0,0,0,0,0,0.0056,0.0071,0.0076,0.0076,0.008,0.0088,0.0085,0.0093,0.0083,0.0083,0.0077,0.0073,0.0036,0.0033,0.0051,-0.0025,0.0001,-0.0003,-0.0031,-0.0038,-0.0044,-0.0045,0.0052,0,0,0,0,0,0.0052,0.0054,0.0065,0.0064,0.0066,0.0075,0.0076,0.0082,0.0079,0.0077,0.0066,0.0047,0.0018,0.0002,-0.0018,-0.0058,-0.0048,-0.0088,-0.0094,-0.0099,-0.0104,-0.0123,-0.0131,-0.0045,-0.0045,-0.0045,0,0,0.0045,0.0053,0.0054,0.006,0.0064,0.0063,0.0077,0.0077,0.0069,0.0071,0.0049,0.0028,0.0005,-0.004,-0.0058,-0.0047,-0.0116,-0.0103,-0.0107,-0.0109,-0.0127,-0.0135,-0.0143,-0.0047,-0.0047,-0.0047,0,0,0.0035,0.0039,0.004,0.004,0.0046,0.0051,0.0052,0.0055,0.0048,0.0023,0.0018,-0.0022,-0.0057,-0.0087,-0.0106,-0.0157,-0.0143,-0.0167,-0.0205,-0.0224,-0.0231,-0.0237,-0.022,-0.0224,-0.0174,-0.0174,-0.0174,0,0.0027,0.0031,0.0038,0.0036,0.0035,0.0046,0.0042,0.0034,0.0026,0.001,0.001,-0.0063,-0.0085,-0.0145,-0.017,-0.0174,-0.0164,-0.0177,-0.0231,-0.0237,-0.0243,-0.0224,-0.0228,-0.0177,-0.0177,-0.0176,-0.0176,0,0.0019,0.002,0.0019,0.0022,0.0016,0.0015,0.0009,-0.0004,-0.0015,-0.0028,-0.0086,-0.0124,-0.017,-0.0192,-0.0203,-0.0264,-0.0236,-0.0233,-0.0212,-0.0255,-0.0231,-0.0235,-0.0181,-0.018,-0.0179,-0.0178,0,0,0.0011,0.0015,0.0014,0.0016,0.001,0.0008,-0.0017,-0.0035,-0.0056,-0.0092,-0.013,-0.0206,-0.0231,-0.0254,-0.028,-0.0307,-0.0344,-0.0294,-0.0294,-0.0274,-0.0358,-0.0272,-0.0267,-0.035,-0.0351,-0.0352,-0.032,0,0.0006,0.0008,0.0003,-0.0004,-0.0001,-0.0013,-0.0041,-0.0065,-0.0092,-0.0128,-0.0181,-0.0235,-0.0252,-0.0294,-0.0325,-0.034,-0.0358,-0.0351,-0.0322,-0.0321,-0.0238,-0.0271,-0.0356,-0.0322,-0.0323,-0.0323,-0.0324,0,-0.0001,0.0006,-0.0003,-0.001,-0.0015,-0.0036,-0.0073,-0.01,-0.0152,-0.0181,-0.024,-0.0267,-0.0333,-0.0339,-0.0382,-0.0375,-0.0376,-0.0378,-0.0377,-0.0284,-0.0243,-0.0275,-0.0329,-0.0329,-0.0328,-0.0328,-0.0328,0,-0.0002,0.0001,-0.0005,-0.0008,-0.0024,-0.0052,-0.0077,-0.0128,-0.0152,-0.0226,-0.0247,-0.0315,-0.035,-0.0377,-0.0384,-0.0391,-0.0398,-0.0405,-0.0321,-0.0314,-0.0377,-0.0371,-0.0431,-0.0431,-0.0431,-0.0431,-0.0431,0,-0.0004,-0.0005,-0.0011,-0.0015,-0.0036,-0.0066,-0.0113,-0.0147,-0.0202,-0.022,-0.0286,-0.0295,-0.0364,-0.0366,-0.038,-0.0346,-0.0394,-0.0328,-0.0308,-0.0395,-0.0392,-0.0378,-0.0372,-0.043,-0.043,-0.043,-0.0431,0,-0.0013,-0.0011,-0.0012,-0.003,-0.004,-0.007,-0.0118,-0.0142,-0.0207,-0.023,-0.0254,-0.0287,-0.0287,-0.0315,-0.0338,-0.0323,-0.0314,-0.0287,-0.0352,-0.0335,-0.0217,-0.0214,-0.0202,-0.0199,-0.0196,-0.0194,-0.0192,0,-0.0016,-0.0021,-0.0023,-0.0022,-0.0037,-0.0076,-0.0094,-0.015,-0.016,-0.0198,-0.0188,-0.0208,-0.0219,-0.0176,-0.0218,-0.0221,-0.022,-0.0212,-0.0252,-0.0216,-0.0198,-0.0199,-0.02,-0.0188,-0.0187,-0.0186,-0.0186,0,-0.0026,-0.0034,-0.0033,-0.0024,-0.0036,-0.0033,-0.0059,-0.0061,-0.0106,-0.0149,-0.0117,-0.0119,-0.0098,-0.0112,-0.0113,-0.0119,-0.0224,-0.0185,-0.0191,-0.0229,-0.0199,-0.0184,-0.0188,-0.0177,-0.0178,-0.0179,-0.0179,0,-0.0039,-0.0037,-0.0034,-0.0029,-0.0015,0.0014,-0.0007,0.0003,-0.0013,-0.005,-0.0021,-0.0041,-0.0067,-0.0053,-0.0049,-0.0052,-0.0061,-0.007,-0.0083,-0.0093,-0.0076,-0.0023,0.0069,0,0,0,0,0,-0.0048,-0.0042,-0.0031,-0.0009,0.0016,0.0025,0.0033,0.0015,-0.001,0.003,-0.0002,0.0021,0.0026,0.0021,0.0036,-0.0007,-0.0069,0.0012,-0.0087,-0.0126,-0.0137,-0.0128,0,0,0,0,0,0,-0.005,-0.0046,-0.0033,0.0015,0.0039,0.007,0.0082,0.0067,0.0089,0.0059,0.0065,0.0038,0.0041,0.0015,0.0038,0.0034,-0.002,-0.0003,-0.0002,-0.012,-0.013,-0.0138,-0.0133,0,0,0,0,0]},{"header":{"parameterUnit":"m.s-1","parameterCategory":2,"la1":30.2991,"la2":30.254,"lo1":-89.0895,"lo2":-89.0444,"dy":0.0017,"dx":0.0017,"nx":28,"ny":28,"refTime":"2025-01-18T09:00:00:Z","depth":"4","parameterNumber":3,"parameterNumberName":"V-component_of_CURRENTS"},"data":[0,0,0,0,0,0,0,0,0,0,0,0,0,0,0,0,0,0,0,0,0,0,0,0,0,0,0,0,0,0,0,0,0,0,0,0,0,0,0,0,0,0,0,0,0,0,0,0,0,0,0,0,0,0,0,0,0,0,-0.002,-0.0019,0,0.0007,0.0007,0.0008,0.0038,0.0039,0.0039,0.004,0.0076,0.0077,0.0077,0,0,0,0,0,0,0,0,0,0,0,0,0,-0.0041,-0.0041,-0.002,-0.0019,-0.0019,0.0007,0.0007,0.0008,0.0038,0.0039,0.004,0.004,0.0076,0.0076,0.0077,0,0,0,0,0,0,0,0,0,0,0,0,0,-0.0025,-0.0041,-0.002,-0.0,0.0002,0.0007,0.0007,0.0008,0.0038,0.0039,0.004,0.004,0.0076,0.0076,0.0077,0.0068,0,0,0.008,0.008,0,0,0,0,0,0,0,0,-0.0026,-0.0024,-0.0004,-0.0002,0.0,0.002,0.0013,0.0028,0.0038,0.0024,0.004,0.0041,0.0058,0.006,0.0063,0.007,0.0071,0.008,0.008,0.0081,0.0081,0,0,0,0,0,0,0,-0.0027,-0.0025,-0.0009,-0.0003,-0.0001,0.0008,0.0011,0.0016,0.0037,0.0026,0.0028,0.0031,0.0059,0.0062,0.0064,0.0072,0.008,0.008,0.0081,0.0081,0.0059,0.0058,0,0,0,0,0,0,-0.0031,-0.0026,-0.001,-0.0008,-0.0011,0.0007,0.0011,0.0013,0.0037,0.0041,0.003,0.0032,0.0061,0.0063,0.0066,0.0056,0.0081,0.0081,0.0082,0.006,0.0059,0.0058,0,0,0,0,0,0,-0.0032,-0.003,-0.0011,-0.0017,-0.0014,0.0007,0.0009,0.0013,0.0019,0.004,0.0045,0.0032,0.0061,0.0065,0.0065,0.0058,0.0082,0.0082,0.0062,0.006,0.0059,0.0036,0,0,0,0,0,0,-0.0033,-0.0031,-0.0036,-0.0017,-0.0013,-0.0015,0.0009,0.0013,0.0019,0.0022,0.0043,0.0047,0.0062,0.0064,0.0066,0.0059,0.0083,0.0063,0.0061,0.0059,0.0039,0.0034,0.0031,0,0,0,0,0,-0.0034,-0.0044,-0.0036,-0.0034,-0.0019,-0.0016,-0.0014,0.0004,0.0019,0.0013,0.0029,0.0047,0.0053,0.0064,0.0067,0.006,0.0064,0.0061,0.0059,0.004,0.0035,0.0031,0,0,0,0,0,0,-0.0061,-0.0041,-0.0032,-0.0037,-0.003,-0.0011,-0.0015,0.0,0.0008,0.0013,0.0037,0.0041,0.0035,0.0046,0.0057,0.0045,0.006,0.0058,0.0044,0.004,0.0036,0.0045,0.0084,0,0,0,0,0,-0.0069,-0.0069,-0.0051,-0.0058,-0.0054,-0.0035,-0.0032,-0.0019,-0.0006,-0.0001,0.0014,0.0025,0.0026,0.0032,0.0033,0.0031,0.0044,0.0025,0.0021,0.0018,0.0025,0.0037,0.0036,0.005,0.005,0.005,0,0,-0.0083,-0.0073,-0.0073,-0.0064,-0.0056,-0.0062,-0.0031,-0.0029,-0.0036,0.0,-0.0006,0.0009,0.0019,0.0014,0.0013,0.0026,0.0016,0.0015,0.0012,0.0022,0.0035,0.0034,0.0033,0.0049,0.0049,0.0049,0,0,-0.0107,-0.01,-0.0104,-0.0103,-0.0092,-0.0084,-0.0085,-0.0066,-0.0059,-0.006,-0.004,-0.0032,-0.0024,-0.0018,-0.0014,-0.0042,-0.001,-0.0039,-0.0041,-0.003,-0.003,-0.003,-0.0029,-0.0029,-0.0034,-0.0034,-0.0034,0,-0.0123,-0.0125,-0.0108,-0.0115,-0.0119,-0.0097,-0.0108,-0.0105,-0.009,-0.0085,-0.0069,-0.0053,-0.0043,-0.0046,-0.0047,-0.005,-0.0032,-0.0021,-0.0033,-0.0033,-0.0032,-0.003,-0.003,-0.0035,-0.0035,-0.0035,-0.0035,0,-0.0145,-0.0152,-0.0158,-0.016,-0.0167,-0.0173,-0.0166,-0.0168,-0.0153,-0.0139,-0.0133,-0.0111,-0.009,-0.0094,-0.0071,-0.0066,-0.0052,-0.0043,-0.0015,-0.0035,-0.0032,-0.0031,-0.0037,-0.0037,-0.0036,-0.0036,0,0,-0.0165,-0.017,-0.0174,-0.018,-0.0187,-0.0193,-0.0214,-0.0217,-0.0218,-0.0199,-0.0192,-0.0179,-0.0136,-0.0129,-0.01,-0.0084,-0.007,-0.0048,-0.0047,-0.0038,-0.0039,-0.0059,-0.006,-0.0048,-0.0047,-0.0047,-0.0043,0,-0.0185,-0.0203,-0.0205,-0.0235,-0.0243,-0.0243,-0.0263,-0.0265,-0.0254,-0.0245,-0.0216,-0.0194,-0.016,-0.0128,-0.011,-0.0076,-0.0065,-0.0072,-0.0029,-0.0029,-0.0036,-0.0058,-0.0046,-0.0042,-0.0041,-0.0041,-0.0041,0,-0.0204,-0.0212,-0.0238,-0.0259,-0.0263,-0.0282,-0.03,-0.0308,-0.0299,-0.028,-0.0248,-0.0213,-0.0176,-0.0144,-0.0096,-0.0092,-0.0061,-0.0044,-0.0043,-0.0049,-0.0046,-0.0016,-0.0039,-0.0039,-0.0039,-0.0039,-0.0039,0,-0.0214,-0.0238,-0.0259,-0.0267,-0.0288,-0.0302,-0.0308,-0.0313,-0.0311,-0.0282,-0.0264,-0.0224,-0.0182,-0.0145,-0.0088,-0.0078,-0.0045,-0.0037,-0.004,-0.0041,-0.0012,-0.0011,-0.0015,-0.0015,-0.0015,-0.0015,-0.0015,0,-0.0228,-0.0248,-0.0262,-0.0272,-0.0296,-0.0304,-0.032,-0.0318,-0.0307,-0.03,-0.0258,-0.024,-0.0171,-0.0141,-0.01,-0.0065,-0.0054,-0.0043,-0.004,-0.0025,-0.0026,-0.0012,-0.0011,-0.0015,-0.0015,-0.0015,-0.0015,0,-0.0236,-0.0247,-0.0272,-0.0292,-0.0299,-0.031,-0.032,-0.0326,-0.0306,-0.0294,-0.0274,-0.0236,-0.0192,-0.015,-0.0096,-0.0079,-0.0052,-0.0045,-0.0041,-0.0038,-0.0054,-0.0055,-0.0052,-0.0052,-0.0053,-0.0054,-0.0054,0,-0.0242,-0.0253,-0.028,-0.0291,-0.03,-0.0313,-0.0324,-0.0319,-0.032,-0.0296,-0.0291,-0.0245,-0.0217,-0.0156,-0.0124,-0.0077,-0.0067,-0.0058,-0.0047,-0.006,-0.0057,-0.0058,-0.0058,-0.0055,-0.0055,-0.0055,-0.0055,0,-0.0255,-0.0266,-0.0283,-0.0292,-0.0309,-0.033,-0.0338,-0.0327,-0.0317,-0.0314,-0.0275,-0.024,-0.0206,-0.0159,-0.0122,-0.0091,-0.0067,-0.0064,-0.0062,-0.0052,-0.0063,-0.006,-0.006,-0.0057,-0.0057,-0.0057,-0.0057,0,-0.0268,-0.0279,-0.0291,-0.0295,-0.0314,-0.0323,-0.0332,-0.0324,-0.0316,-0.028,-0.0277,-0.0232,-0.0209,-0.017,-0.0144,-0.0109,-0.01,-0.0086,-0.0083,-0.008,-0.0091,-0.011,-0.0119,0,0,0,0,0,-0.0277,-0.0282,-0.029,-0.0295,-0.0307,-0.031,-0.0333,-0.0339,-0.0327,-0.0292,-0.0274,-0.024,-0.0189,-0.0178,-0.0143,-0.0169,-0.0109,-0.0132,-0.0093,-0.0068,-0.0066,-0.0076,0,0,0,0,0,0,-0.0287,-0.0301,-0.0289,-0.0284,-0.0272,-0.0291,-0.0295,-0.0297,-0.0276,-0.0258,-0.0227,-0.0228,-0.0179,-0.0186,-0.0132,-0.013,-0.0103,-0.0115,-0.0115,-0.0069,-0.0067,-0.0065,-0.0075,0,0,0,0,0]}]]